Flag for U.S.A. Weather past 2 weeks in Midland, Texas, U.S.A.

Now
74 °F

Passing clouds.


Feels Like: 75 °F
Forecast: 68 / 82 °F
Wind: No wind

Location: Midland International Airport

Current Time: Sep 15, 2014 at 10:58:38 PM

Latest Report: Sep 15, 2014 at 9:53 PM


Visibility: 9 mi

Pressure: 30.07 "Hg

Humidity: 74%

Dew point: 65 °F

Location of MidlandLocation

Historic Weather in Midland — Graph

°F

Midland temperature yesterday

Maximum temperature yesterday: 68 °F (at 2:53 PM)
Minimum temperature yesterday: 56 °F (at 12:53 AM)
Average temperature yesterday: 62 °F

Past Weeks' High & Low Weather Summary

 TemperatureHumidityPressure
High102 °F (Sep 1, 5:53 PM)100% (Sep 7, 8:53 AM)30.35 "Hg (Sep 7, 8:53 AM)
Low49 °F (Sep 13, 8:04 AM)20% (Sep 1, 3:53 PM)29.65 "Hg (Sep 1, 6:53 PM)
Average75 °F67%29.94 "Hg
* Reported Aug 31 8:53 PM — Sep 15 8:53 PM, Midland, Weather by CustomWeather, © 2014

Note: Actual official high and low records may vary slightly from our data, if they occured in-between our weather recording intervals... More about our weather records

Advertising

Midland weather history for previous 24 hours

 ConditionsComfort  
Time TempWeatherWind HumidityBarometerVisibility
8:53 PM
Sep 15
74 °FSunny.No wind76%30.05 "Hg10 mi
7:53 PM76 °FPassing clouds.No wind67%30.04 "Hg10 mi
6:53 PM77 °FScattered clouds.6 mph62%30.03 "Hg10 mi
5:53 PM78 °FScattered clouds.8 mph58%30.01 "Hg10 mi
4:53 PM78 °FPartly sunny.8 mph58%30.01 "Hg10 mi
3:53 PM76 °FOvercast.8 mph62%30.03 "Hg10 mi
2:53 PM76 °FOvercast.14 mph64%30.04 "Hg10 mi
1:53 PM75 °FOvercast.14 mph69%30.06 "Hg10 mi
12:53 PM74 °FOvercast.16 mph71%30.08 "Hg10 mi
11:53 AM72 °FMostly cloudy.15 mph76%30.10 "Hg10 mi
10:53 AM71 °FMostly cloudy.13 mph81%30.10 "Hg9 mi
9:53 AM68 °FPartly sunny.8 mph90%30.10 "Hg8 mi
8:53 AM66 °FFog.6 mph93%30.09 "Hg3 mi
8:00 AM64 °FFog.5 mph97%30.18 "Hg6 mi
6:53 AM64 °FMostly cloudy.3 mph97%30.08 "Hg8 mi
5:53 AM64 °FPassing clouds.5 mph97%30.07 "Hg9 mi
4:53 AM65 °FOvercast.3 mph94%30.07 "Hg10 mi
3:53 AM65 °FClear.7 mph94%30.07 "Hg10 mi
2:53 AM66 °FOvercast.8 mph90%30.08 "Hg10 mi
1:53 AM66 °FOvercast.3 mph93%30.09 "Hg10 mi
12:53 AM65 °FOvercast.5 mph97%30.09 "Hg10 mi
11:53 PM
Sep 14
65 °FOvercast.5 mph94%30.11 "Hg10 mi
10:53 PM66 °FOvercast.7 mph90%30.11 "Hg10 mi
Weather by CustomWeather, © 2014

See weather overviewHow to use our weather pages